Regional Weather Roundup
Issued by NWS

Home | Current Version | Previous Version | Graphics & Text | Print | Product List | Glossary On
Versions: 1 2 3 4 5 6 7 8 9 10 11 12 13 14 15 16 17 18 19 20 21 22 23 24 25 26 27 28 29 30 31 32 33 34 35 36 37 38 39 40 41 42 43 44 45 46 47 48 49 50
000
ASUS43 KMPX 280401
RWRMN
WEATHER ROUNDUP FOR MINNESOTA
NATIONAL WEATHER SERVICE TWIN CITIES/CHANHASSEN MN
1100 PM CDT TUE JUN 27 2017


NOTE: "FAIR" INDICATES FEW OR NO CLOUDS BELOW 12,000 FEET WITH NO
SIGNIFICANT WEATHER AND/OR OBSTRUCTIONS TO VISIBILITY. N/A MEANS
CURRENT SKY AND/OR WEATHER CONDITIONS ARE NOT AVAILABLE.

MNZ060>063-068>070-280500-
   Twin Cities Metro

CITY           SKY/WX    TMP DP  RH WIND       PRES   REMARKS
TWIN CITIES    CLOUDY    71  44  37 S13       29.84R
ST PAUL        CLOUDY    68  46  45 S9        29.85R
CRYSTAL        CLOUDY    70  43  37 S12       29.81R
BLAINE         MOCLDY    72  45  37 S10       29.83R
LAKEVILLE      CLOUDY    68  46  45 S8        29.84R
EDEN PRAIRIE   CLOUDY    71  45  39 S9        29.82R
SOUTH ST PAUL  CLOUDY    68  45  44 S6        29.84R
LAKE ELMO      FAIR      66  46  48 S8        29.85S
$$
MNZ001>005-007-008-013>017-022>024-027-028-280500-
   Northwest Minnesota

CITY           SKY/WX    TMP DP  RH WIND       PRES   REMARKS
BEMIDJI        MOCLDY    63  47  55 SE7       29.75S
HALLOCK        MOCLDY    64  50  59 SE9       29.62S
ROSEAU         MOCLDY    64  52  63 SE9       29.68F
WARROAD        CLOUDY    64  52  63 SE8       29.70F
CROOKSTON      CLEAR     66  48  52 SE15      29.66R
FOSSTON        CLOUDY    64  46  52 SE10G16   29.72R
DETROIT LAKES  CLOUDY    64  50  59 SE15G21   29.73S
MOORHEAD       MOCLDY    70  48  46 SE15      29.65F
PARK RAPIDS    CLOUDY    65  48  54 SE10      29.77R THUNDER
MAHNOMEN       CLOUDY    64  50  59 SE14      29.70R
$$
MNZ006-009>011-018-025>026-280500-
   North Central Minnesota

CITY           SKY/WX    TMP DP  RH WIND       PRES   REMARKS
BAUDETTE       CLOUDY    61  50  67 SE7       29.73S
FLAG ISLAND    CLOUDY    68  52  56 SE13      29.69S
INTL FALLS     CLOUDY    55  46  71 CALM      29.75F
WASKISH        MOCLDY    61  52  72 SE3       29.74S
BIG FORK       PTCLDY    61  46  59 S3        29.78F
LONGVILLE      PTCLDY    57  48  72 SE3       29.77S
GRAND RAPIDS   PTCLDY    61  45  55 SE5       29.81F
CRANE LAKE     CLEAR     52  46  82 CALM      29.80S
ORR            CLOUDY    57  43  58 S7        29.76F
COOK           CLEAR     55  46  71 SE5       29.80F
WALKER         FAIR      64  45  50 SE5       29.77R
$$
MNZ012-019>021-037-280500-
   Northeast Minnesota

CITY           SKY/WX    TMP DP  RH WIND       PRES   REMARKS
DULUTH         CLEAR     57  47  69 SE5       29.83F
ELY            CLEAR     61  46  59 S3        29.82F
HIBBING        CLEAR     52  45  77 SE5       29.80F
EVELETH        CLEAR     55  42  61 CALM      29.83F
DULUTH HARBOR  CLEAR     64  52  63 S5        29.83F
TWO HARBORS    CLOUDY    57  52  82 CALM      29.82F
SILVER BAY     MOCLDY    55  50  82 CALM      29.82F
GRAND MARAIS     N/A     49  46  90 CALM      29.83S
G MARAIS ARPRT CLOUDY    61  41  48 SW6       29.86S
$$
MNZ029>031-032-039>041-046>048-054>057-064-280500-
   West Central Minnesota

CITY           SKY/WX    TMP DP  RH WIND       PRES   REMARKS
FERGUS FALLS   CLOUDY    66  52  59 SE8       29.68S
WHEATON        CLOUDY    72  45  37 SE16G23   29.67F
MORRIS         MOCLDY    72  46  40 SE18G24   29.71F
ALEXANDRIA     CLOUDY    63  51  65 SE8       29.76R
ELBOW LAKE     CLOUDY    71  47  42 S20G25    29.71S
WADENA         CLOUDY    63  50  63 SE10      29.75F
GLENWOOD       CLOUDY    70  48  46 S17G24    29.76R
APPLETON       CLOUDY    73  46  38 SE12G18   29.70F
BENSON         CLOUDY    70  46  43 S16G22    29.75F
ORTONVILLE     CLOUDY    72  48  43 SE16G23   29.67F
MADISON        CLOUDY    73  52  46 SE15      29.70F
WILLMAR        FAIR      72  48  43 SE14      29.77F
$$
MNZ033>034-036-042>043-049>051-058-059-280500-
   Central Minnesota

CITY           SKY/WX    TMP DP  RH WIND       PRES   REMARKS
ST CLOUD       MOCLDY    62  54  74 SE3       29.79R
SAUK CENTRE    FAIR      63  50  62 SE8       29.77S
PAYNESVILLE    MOCLDY    68  46  45 S13       29.79R
AITKIN         PTCLDY    55  46  71 SE3       29.78F
PINE RIVER     CLOUDY    64  48  55 SE7       29.80S
BRAINERD       LGT RAIN  64  45  49 S9        29.78F
STAPLES        LGT RAIN  61  50  67 SE6       29.77F
LONG PRAIRIE   FAIR      59  52  77 E7        29.77S
LITTLE FALLS   CLOUDY    63  48  59 E5        29.79S
LITCHFIELD     CLOUDY    72  48  43 S6        29.80R
BUFFALO        CLOUDY    67  46  46 SE5       29.83R
MAPLE LAKE     CLOUDY    68  50  52 S3        29.82R
HUTCHINSON     CLEAR     68  48  49 SE6       29.82R
$$
MNZ037-044-045-052-053-280500-
   East Central Minnesota

CITY           SKY/WX    TMP DP  RH WIND       PRES   REMARKS
PRINCETON      CLOUDY    70  46  43 SE10G17   29.79F
MORA           PTCLDY    61  45  55 E5        29.83S
CAMBRIDGE      PTCLDY    68  48  49 SE5       29.80S
RUSH CITY      CLOUDY    61  46  59 SE5       29.83S
MOOSE LAKE     PTCLDY    52  48  87 SE3       29.81F
HINCKLEY       FAIR      59  46  63 E6        29.83S
CLOQUET        CLEAR     59  43  55 CALM      29.84F
MCGREGOR       CLOUDY    55  46  71 SE7       29.80F
$$
MNZ071>073-080-081-089-090-097-098-280500-
   Southwest Minnesota

CITY           SKY/WX    TMP DP  RH WIND       PRES   REMARKS
MONTEVIDEO     CLOUDY    72  48  43 S10       29.73F
GRANITE FALLS  CLOUDY    73  51  46 SE10      29.76S
CANBY          CLOUDY    70  54  56 CALM      29.73F
MARSHALL       CLOUDY    71  56  58 SE12      29.73F
REDWOOD FALLS  CLOUDY    71  48  43 SE15      29.76S
OLIVIA         CLOUDY    70  46  43 SE15G21   29.75F
PIPESTONE      CLOUDY    73  61  64 S16       29.72F THUNDER
WINDOM         PTCLDY    72  54  53 SE14G20   29.77F
WORTHINGTON    CLOUDY    72  60  66 SE16G23   29.75F
JACKSON        CLOUDY    70  55  60 S14G21    29.80S
TRACY          CLOUDY    72  58  61 SE12      29.74S
SLAYTON        CLOUDY    71  59  65 SE17G26   29.75F
$$
MNZ065>067-074>077-082>085-091>093-280500-
   South Central Minnesota

CITY           SKY/WX    TMP DP  RH WIND       PRES   REMARKS
MANKATO        CLOUDY    69  48  47 S14G21    29.83R
NEW ULM        MOCLDY    70  46  43 SE12      29.79F
ST JAMES       MOCLDY    70  52  52 SE16G22   29.78F
FAIRMONT       CLOUDY    69  53  56 SE16      29.81S
GLENCOE        MOCLDY    71  50  48 S7        29.82R
FARIBAULT      CLOUDY    70  46  43 S15       29.84R
OWATONNA       PTCLDY    70  46  43 SE12G18   29.85R
WASECA         CLOUDY    66  45  45 S14       29.86R
ALBERT LEA     CLOUDY    68  46  45 S10       29.87R
$$
MNZ078>079-086>088-094>096-280500-
   Southeast Minnesota

CITY           SKY/WX    TMP DP  RH WIND       PRES   REMARKS
ROCHESTER      CLOUDY    62  47  57 S12       29.89F
RED WING       PTCLDY    66  43  42 SE9       29.84S
STANTON        CLOUDY    69  45  41 S7        29.84R
DODGE CENTER   CLOUDY    64  45  48 SE12      29.86F
WINONA         PTCLDY    61  48  63 SE7       29.91F
AUSTIN         CLOUDY    64  46  52 SE8       29.88F
PRESTON        CLOUDY    62  45  54 S8        29.93S
$$
ABBREVIATIONS USED IN REMARKS
   TC - TEMPERATURES IN CELSIUS
  WCI - WIND CHILL INDEX
   HX - HEAT INDEX
  VSB - VISIBILITY
$$




USA.gov is the U.S. government's official web portal to all federal, state and local government web resources and services.